CZ-4 DEB, 26432

Orbit data source: Space-Track

CZ-4 DEB, 26432 is space debris in SSO originally from a launch on Thu, 14 Oct 1999 UTC launched from the Taiyaun Space Center, China (TSC). Debris objects in space refer to the collection of defunct objects orbiting the Earth. Examples of debris include non-operational satellites, rocket bodies, and fragments generated from explosions, collisions, or faulty payload assembly.

Loading next visibility...
Identifier
26432, 1999-057KD
Orbit
SSO
Country
Flag of CNCN / PRC
Related business
Manufacturer
Unknown
Mission
Spacecraft
Bus & Motor
Unknown
Mass
Unknown
Launch date (UTC)
1999-10-14 (26 years ago)
Launch vehicle
Unknown
Launch site
Taiyaun Space Center, China (TSC)
Object type
Payload
Rocket body
Debris
Shape & HBR
Unknown shape, 0.1 m
Radar Cross Section
Small (<0.1 m²)

Expand to show TLE details & history
Last TLE update: 7 hours ago

TLE from 7 hours ago
0 CZ-4 DEB
1 26432U 99057KD  25304.83020465  .00035884  00000-0  40792-2 0  9991
2 26432  98.5479  63.4515 0067244 181.0767 179.0312 14.84495300337765
Epoch: 2025-10-31T19:55Z
TLE epoch observation values (Epoch: 2025-10-31T19:55:29.681Z)
Latitude
0.00001°
Longitude
84.20882°
Altitude
665.207 km
Speed
7.499 km/s
True Right ascension
04h 13m 48s
True Declination
0° 00' 00"
Sunlit
Object was in full shadow at epoch
Visualization orbit readout
Latitude
Unknown
Longitude
Unknown
Altitude
Unknown
Speed
Unknown
Apparent Right ascension
Unknown
Apparent Declination
Unknown
Sunlit
N/A
Visualization observer readout
Local Sidereal Time
22:13:39
Azimuth
Unknown
Elevation
Unknown
Doppler factor
Unknown
Orbital elements
Apogee altitude
659.241 km
Perigee altitude
565.229 km
Semi-major axis
6,990.372 km
Eccentricity
0.00672
Inclination
98.5479°
RAAN
63.4515°
Arg. of periapsis
181.0767°
True anomaly
179.04412°
Mean anomaly
179.0312°
Eccentric anomaly
179.03767°
Mean motion
3.71358 °/min
Orbital period
96.94 mins
BSTAR
0.0040792
Loading maneuver chart data...
Computing Atmospheric mass density...
Loading historical data...
Loading historical data...
Loading historical data...
Loading historical data...
Loading historical data...
Loading historical data...
Loading historical data...

Documentation

Showing up to 5 results
|